EA5DHO-13 Weather Reports


Display with metric or nautical units.
time (UTC)temp
F
wind
direction
speed
MPH
gust
MPH
rain 1hr
in
rain 24hr
in
rain mn
in
humidity
%
barometer
mb
20260905162417 88 183 4.0 7.0 0.00 0.00 0.00 61 1023.2
20260905161533 88 144 1.0 6.0 0.00 0.00 0.00 59 1023.1
20260905160510 87 113 3.0 8.0 0.00 0.00 0.00 61 1023.1
20260905155506 88 143 7.0 13.0 0.00 0.00 0.00 58 1023.2
20260905154503 89 144 5.0 8.0 0.00 0.00 0.00 54 1023.1
20260905153501 89 97 3.0 8.0 0.00 0.00 0.00 53 1023.1
20260905152457 88 76 4.0 7.0 0.00 0.00 0.00 57 1023.1
20260905151454 87 68 9.0 11.0 0.00 0.00 0.00 55 1023.1
20260905150450 88 90 8.0 11.0 0.00 0.00 0.00 56 1023.3
20260905145448 89 90 6.0 11.0 0.00 0.00 0.00 55 1023.3
20260905144445 88 96 6.0 13.0 0.00 0.00 0.00 56 1023.4
20260905143441 88 82 7.0 13.0 0.00 0.00 0.00 58 1023.3
20260905142437 88 68 7.0 11.0 0.00 0.00 0.00 58 1023.4
20260905141434 89 76 5.0 8.0 0.00 0.00 0.00 58 1023.5
20260905140431 90 74 6.0 8.0 0.00 0.00 0.00 56 1023.4
20260905135429 90 106 5.0 8.0 0.00 0.00 0.00 57 1023.7
20260905134424 89 113 5.0 8.0 0.00 0.00 0.00 57 1023.7
20260905133421 89 87 4.0 8.0 0.00 0.00 0.00 58 1023.7
20260905132438 90 45 6.0 9.0 0.00 0.00 0.00 53 1023.8
20260905131535 89 113 6.0 11.0 0.00 0.00 0.00 59 1023.9
20260905130511 91 39 2.0 6.0 0.00 0.00 0.00 57 1023.9
20260905125528 90 66 5.0 9.0 0.00 0.00 0.00 61 1023.8
20260905124505 89 84 6.0 11.0 0.00 0.00 0.00 62 1024.0
20260905123501 89 90 6.0 11.0 0.00 0.00 0.00 60 1024.0
20260905122458 90 126 5.0 11.0 0.00 0.00 0.00 60 1024.1
20260905121455 91 94 3.0 6.0 0.00 0.00 0.00 58 1024.1
20260905120452 89 99 8.0 14.0 0.00 0.00 0.00 60 1024.0
20260905115449 91 113 5.0 9.0 0.00 0.00 0.00 55 1024.0
20260905114445 89 90 8.0 11.0 0.00 0.00 0.00 58 1024.2
20260905113442 90 142 5.0 9.0 0.00 0.00 0.00 58 1024.0
20260905112500 90 133 5.0 11.0 0.00 0.00 0.00 59 1023.9
20260905111436 90 113 5.0 8.0 0.00 0.00 0.00 59 1023.9
20260905110433 89 82 9.0 11.0 0.00 0.00 0.00 61 1023.9
20260905105429 92 113 5.0 7.0 0.00 0.00 0.00 59 1023.9
20260905104426 94 90 3.0 4.0 0.00 0.00 0.00 48 1023.9
20260905103423 93 192 3.0 4.0 0.00 0.00 0.00 48 1024.0
20260905102420 93 86 2.0 7.0 0.00 0.00 0.00 48 1024.0
20260905101416 95 135 1.0 2.0 0.00 0.00 0.00 47 1024.1
20260905100513 93 0.0 0.0 0.00 0.00 0.00 48 1024.0
20260905095510 92 0.0 0.0 0.00 0.00 0.00 51 1023.9
20260905094506 92 0.0 2.0 0.00 0.00 0.00 53 1023.9
20260905093503 89 0.0 0.0 0.00 0.00 0.00 57 1024.0
20260905092500 88 248 1.0 2.0 0.00 0.00 0.00 59 1023.7
20260905091517 86 210 1.0 4.0 0.00 0.00 0.00 62 1023.7
20260905090454 86 248 0.0 2.0 0.00 0.00 0.00 64 1023.7
20260905085450 84 239 3.0 4.0 0.00 0.00 0.00 65 1023.6
20260905084447 83 240 5.0 7.0 0.00 0.00 0.00 68 1023.6
20260905083444 83 248 2.0 4.0 0.00 0.00 0.00 71 1023.5
20260905082441 81 270 3.0 4.0 0.00 0.00 0.00 74 1023.4
20260905081439 80 279 5.0 8.0 0.00 0.00 0.00 76 1023.4
20260905080435 80 279 4.0 7.0 0.00 0.00 0.00 76 1023.3
20260905075431 79 270 3.0 6.0 0.00 0.00 0.00 76 1023.4
20260905074429 78 263 4.0 7.0 0.00 0.00 0.00 75 1023.4
20260905073424 77 270 4.0 7.0 0.00 0.00 0.00 76 1023.4
20260905072421 76 248 4.0 6.0 0.00 0.00 0.00 77 1023.4
20260905071418 76 256 3.0 6.0 0.00 0.00 0.00 80 1023.3
20260905070435 76 270 2.0 4.0 0.00 0.00 0.00 81 1023.3
20260905065512 76 270 1.0 2.0 0.00 0.00 0.00 82 1023.1
20260905064510 75 270 0.0 2.0 0.00 0.00 0.00 84 1023.0
20260905063506 74 264 3.0 4.0 0.00 0.00 0.00 84 1023.2
20260905062503 74 255 4.0 6.0 0.00 0.00 0.00 84 1023.2
20260905061500 74 259 2.0 4.0 0.00 0.00 0.00 84 1023.2
20260905060517 74 254 4.0 4.0 0.00 0.00 0.00 83 1023.1
20260905055452 75 232 2.0 2.0 0.00 0.00 0.00 82 1023.2
20260905054510 75 248 1.0 2.0 0.00 0.00 0.00 82 1023.1
20260905053506 75 263 2.0 2.0 0.00 0.00 0.00 82 1023.0
20260905052443 75 248 2.0 2.0 0.00 0.00 0.00 82 1023.0
20260905051440 74 248 2.0 2.0 0.00 0.00 0.00 82 1023.1
20260905050436 74 248 2.0 2.0 0.00 0.00 0.00 82 1023.0
20260905045434 75 253 3.0 4.0 0.00 0.00 0.00 82 1022.9
20260905044430 75 248 3.0 4.0 0.00 0.00 0.00 82 1022.8
20260905043426 75 248 2.0 4.0 0.00 0.00 0.00 82 1022.9
20260905042423 75 248 3.0 4.0 0.00 0.00 0.00 82 1022.9
20260905041421 75 248 2.0 2.0 0.00 0.00 0.00 83 1022.9
20260905040438 75 252 3.0 4.0 0.00 0.00 0.00 83 1022.9
20260905035514 75 315 1.0 2.0 0.00 0.00 0.00 84 1022.9
20260905034552 75 315 2.0 2.0 0.00 0.00 0.00 85 1022.9
20260905033508 76 315 0.0 2.0 0.00 0.00 0.00 86 1022.8
20260905032504 76 0.0 0.0 0.00 0.00 0.00 86 1022.7
20260905031521 76 0 1.0 2.0 0.00 0.00 0.00 87 1022.8
20260905030457 77 0.0 0.0 0.00 0.00 0.00 87 1022.8
20260905025455 77 0.0 0.0 0.00 0.00 0.00 87 1022.7
20260905024451 77 0.0 0.0 0.00 0.00 0.00 87 1022.7
20260905023448 77 0.0 0.0 0.00 0.00 0.00 87 1022.7
20260905022444 77 0.0 0.0 0.00 0.00 0.00 87 1022.5
20260905021441 77 0.0 0.0 0.00 0.00 0.00 87 1022.5
20260905020438 77 0.0 0.0 0.00 0.00 0.00 87 1022.5
20260905015435 77 0.0 0.0 0.00 0.00 0.00 87 1022.5
20260905014431 77 0.0 0.0 0.00 0.00 0.00 87 1022.4
20260905013428 77 0.0 0.0 0.00 0.00 0.00 87 1022.6
20260905012425 77 0.0 2.0 0.00 0.00 0.00 87 1022.6
20260905011422 78 0.0 0.0 0.00 0.00 0.00 87 1022.6
20260905010419 78 0.0 2.0 0.00 0.00 0.00 86 1022.7
20260905005415 78 0 1.0 2.0 0.00 0.00 0.00 86 1022.8
20260905004512 78 0.0 0.0 0.00 0.00 0.00 86 1022.5
20260905003509 78 0.0 0.0 0.00 0.00 0.00 85 1022.5
20260905002526 78 0 0.0 2.0 0.00 0.00 0.00 85 1022.5
20260905001503 78 0 0.0 2.0 0.00 0.00 0.00 86 1022.6
20260905000459 78 0 2.0 2.0 0.00 0.00 0.00 86 1022.5
20260904235456 78 0 1.0 2.0 0.00 0.00 0.00 87 1022.6
20260904234454 79 0.0 0.0 0.00 0.00 0.00 87 1022.7
20260904233450 79 23 0.0 2.0 0.00 0.00 0.00 86 1022.7
20260904232446 79 0.0 2.0 0.00 0.00 0.00 86 1022.7
20260904231443 79 23 0.0 2.0 0.00 0.00 0.00 86 1022.7
20260904230440 79 0.0 2.0 0.00 0.00 0.00 85 1022.8
20260904225436 79 0.0 0.0 0.00 0.00 0.00 85 1022.6
20260904224433 79 0.0 0.0 0.00 0.00 0.00 85 1022.6
20260904223430 79 0.0 0.0 0.00 0.00 0.00 85 1022.5
20260904222447 79 0.0 0.0 0.00 0.00 0.00 86 1022.5
20260904221424 79 0.0 0.0 0.00 0.00 0.00 85 1022.4
20260904220420 80 23 1.0 2.0 0.00 0.00 0.00 85 1022.5
20260904215417 80 0.0 0.0 0.00 0.00 0.00 85 1022.5
20260904214514 80 23 1.0 2.0 0.00 0.00 0.00 84 1022.4
20260904213512 80 23 0.0 2.0 0.00 0.00 0.00 84 1022.4
20260904212508 80 0.0 0.0 0.00 0.00 0.00 84 1022.5
20260904211506 80 23 0.0 2.0 0.00 0.00 0.00 84 1022.7
20260904210502 80 0.0 2.0 0.00 0.00 0.00 84 1022.5
20260904205458 80 23 1.0 4.0 0.00 0.00 0.00 84 1022.7
20260904204455 80 45 1.0 2.0 0.00 0.00 0.00 83 1022.6
20260904203451 81 56 1.0 4.0 0.00 0.00 0.00 83 1022.6
20260904202449 81 69 3.0 6.0 0.00 0.00 0.00 82 1022.5
20260904201445 81 45 3.0 6.0 0.00 0.00 0.00 82 1022.4
20260904200502 81 55 1.0 4.0 0.00 0.00 0.00 81 1022.3
20260904195440 81 66 2.0 4.0 0.00 0.00 0.00 80 1022.2
20260904194435 81 45 1.0 4.0 0.00 0.00 0.00 80 1022.1
20260904193432 81 45 1.0 2.0 0.00 0.00 0.00 80 1021.9
20260904192450 81 23 1.0 4.0 0.00 0.00 0.00 80 1021.9
20260904191446 81 23 1.0 4.0 0.00 0.00 0.00 80 1021.9
20260904190423 81 45 2.0 4.0 0.00 0.00 0.00 79 1021.8
20260904185419 82 68 3.0 8.0 0.00 0.00 0.00 79 1021.6
20260904184437 82 28 3.0 7.0 0.00 0.00 0.00 78 1021.6
20260904183513 82 45 2.0 2.0 0.00 0.00 0.00 79 1021.4
20260904182510 82 82 1.0 4.0 0.00 0.00 0.00 79 1021.5
20260904181507 82 30 2.0 4.0 0.00 0.00 0.00 79 1021.5
20260904180503 82 23 1.0 2.0 0.00 0.00 0.00 78 1021.6
20260904175500 83 54 3.0 6.0 0.00 0.00 0.00 78 1021.5
20260904174457 83 55 2.0 7.0 0.00 0.00 0.00 79 1021.5
20260904173454 83 121 3.0 6.0 0.00 0.00 0.00 79 1021.5
20260904172421 83 45 4.0 8.0 0.00 0.00 0.00 78 1021.4
20260904171418 83 37 2.0 6.0 0.00 0.00 0.00 78 1021.5
20260904170514 83 32 3.0 4.0 0.00 0.00 0.00 78 1021.4
20260904165512 83 23 3.0 7.0 0.00 0.00 0.00 77 1021.3
20260904164507 83 18 3.0 7.0 0.00 0.00 0.00 77 1021.3
20260904163524 84 24 1.0 4.0 0.00 0.00 0.00 77 1021.4